Location: Regensburg
(48.4565°N, 10.3217°E)
Time: 06:11:58
(UTC+02:00)

Tiangong 2 - Visible Passes

Search period start: 26 May 2018 00:00
Search period end: 05 June 2018 00:00
Orbit: 382 x 385 km, 42.8° (Epoch: 25 May)

Date Brightness Start Highest point End Pass type
(mag) Time Alt. Az. Time Alt. Az. Time Alt. Az.
26 May 2.1 22:48:08 10° WSW 22:50:54 28° S 22:51:30 26° SSE visible
27 May 2.1 21:48:26 10° WSW 21:51:13 29° S 21:54:00 10° ESE visible
27 May 3.0 23:25:04 10° WSW 23:26:31 17° SW 23:26:31 17° SW visible
28 May 2.4 22:25:10 10° WSW 22:27:48 24° SSW 22:29:17 17° SSE visible
29 May 3.1 23:02:24 10° WSW 23:04:12 15° SSW 23:04:12 15° SSW visible
30 May 2.8 22:02:17 10° WSW 22:04:41 20° SSW 22:06:56 11° SSE visible
31 May 3.5 22:40:28 10° SW 22:41:04 10° SSW 22:41:39 10° SSW visible
